Mitchell, SD

5:03 AM CDT on October 16, 2019 (GMT -0500)
Mitchell Municipal

Weather History for KMHE - August, 2019

Change the Weather History Date:

Tuesday, August 27, 2019

  Actual Average Record
Temperature  
Mean Temperature 66 °F 70 °F  
Max Temperature 75 °F 82 °F 106 °F (1976)
Min Temperature 56 °F 58 °F 40 °F (1896)
Degree Days  
Heating Degree Days 0 1  
Month to date heating degree days 0 2  
Since 1 June heating degree days 16 42  
Since 1 July heating degree days 0 7  
Cooling Degree Days 1 6  
Month to date cooling degree days 211 207  
Year to date cooling degree days 791 725  
Since 1 June cooling degree days 772 685  
Growing Degree Days 14 (Base 50)    
Moisture  
Dew Point 49 °F    
Average Humidity 59    
Maximum Humidity 83    
Minimum Humidity 35    
Precipitation  
Precipitation 0.00 in 0.07 in 1.12 in (1977)
Month to date precipitation 3.49 2.09  
Year to date precipitation 24.41 16.06  
Snow  
Snow 0.00 in - 0.00 in ()
Month to date snowfall 0.0  
Since 1 June snowfall 0.0  
Since 1 July snowfall 0.0  
Snow Depth 0.00 in    
Sea Level Pressure  
Sea Level Pressure 29.95 in    
Wind  
Wind Speed 15 mph (WNW)    
Max Wind Speed 31 mph    
Max Gust Speed 47 mph    
Visibility 10 miles    
Events      
T = Trace of Precipitation, MM = Missing Value Source: NWS Daily Summary

Daily Weather History Graph

Daily Weather History Graph

Search for Another Location

Airport or City:

Astronomy

Aug. 27, 2019 Rise Set
Actual Time 6:49 AM CDT 8:16 PM CDT
Civil Twilight 6:19 AM CDT 8:46 PM CDT
Nautical Twilight 5:43 AM CDT 9:22 PM CDT
Astronomical Twilight 5:04 AM CDT 10:01 PM CDT
Moon 3:08 AM CDT (8/27) 6:45 PM CDT (8/27)
Length of Visible Light 14h 26m
Length of Day
13h 26m
Waning Crescent, 11% of the Moon is Illuminated
Aug 27
Waning Crescent
Aug 30
New
Sep 5
First Quarter
Sep 13
Full
Sep 21
Last Quarter

Hourly Weather History & Observations

Time (CDT) Temp. Dew Point Humidity Pressure Visibility Wind Dir Wind Speed Gust Speed Precip Events Conditions
12:53 AM 61.0 °F 51.1 °F 70% 29.90 in 10.0 mi West 11.5 mph - N/A   Clear
1:53 AM 59.0 °F 51.1 °F 75% 29.90 in 10.0 mi West 8.1 mph - N/A   Clear
2:53 AM 59.0 °F 51.1 °F 75% 29.91 in 10.0 mi West 10.4 mph - N/A   Clear
3:53 AM 57.9 °F 52.0 °F 81% 29.91 in 10.0 mi West 15.0 mph 23.0 mph N/A   Clear
4:53 AM 57.0 °F 52.0 °F 83% 29.91 in 10.0 mi West 12.7 mph - N/A   Clear
5:53 AM 57.0 °F 51.1 °F 81% 29.93 in 10.0 mi West 12.7 mph - N/A   Clear
6:53 AM 55.9 °F 50.0 °F 80% 29.94 in 10.0 mi West 11.5 mph - N/A   Clear
7:53 AM 57.9 °F 51.1 °F 78% 29.95 in 10.0 mi West 11.5 mph - N/A   Partly Cloudy
8:53 AM 62.1 °F 52.0 °F 70% 29.96 in 10.0 mi WNW 13.8 mph - N/A   Clear
9:53 AM 66.0 °F 51.1 °F 59% 29.97 in 10.0 mi WNW 16.1 mph 24.2 mph N/A   Clear
10:53 AM 68.0 °F 52.0 °F 56% 29.98 in 10.0 mi WNW 13.8 mph 26.5 mph N/A   Clear
11:53 AM 71.1 °F 48.9 °F 45% 29.97 in 10.0 mi WNW 20.7 mph 27.6 mph N/A   Clear
12:53 PM 72.0 °F 46.0 °F 40% 29.96 in 10.0 mi WNW 24.2 mph 34.5 mph N/A   Partly Cloudy
1:53 PM 73.0 °F 44.1 °F 35% 29.96 in 10.0 mi NW 26.5 mph 39.1 mph N/A   Clear
2:53 PM 73.9 °F 44.1 °F 34% 29.95 in 10.0 mi WNW 24.2 mph 40.3 mph N/A   Clear
3:53 PM 73.9 °F 44.1 °F 34% 29.96 in 10.0 mi WNW 24.2 mph 44.9 mph N/A   Clear
4:53 PM 73.9 °F 45.0 °F 35% 29.96 in 10.0 mi NW 21.9 mph 33.4 mph N/A   Scattered Clouds
5:53 PM 72.0 °F 46.0 °F 40% 29.97 in 10.0 mi NW 20.7 mph 33.4 mph N/A   Clear
6:53 PM 71.1 °F 46.9 °F 42% 29.97 in 10.0 mi WNW 16.1 mph 24.2 mph N/A   Clear
7:53 PM 66.9 °F 48.0 °F 51% 29.97 in 10.0 mi WNW 9.2 mph - N/A   Clear
8:53 PM 62.1 °F 48.9 °F 62% 29.98 in 10.0 mi West 6.9 mph - N/A   Clear
9:53 PM 60.1 °F 48.9 °F 67% 29.99 in 10.0 mi West 9.2 mph - N/A   Clear
10:53 PM 59.0 °F 48.0 °F 67% 29.99 in 10.0 mi West 9.2 mph - N/A   Clear
11:53 PM 57.9 °F 48.0 °F 70% 29.99 in 10.0 mi WSW 10.4 mph - N/A   Clear